Wind_Speed
12 7 21 23 15 7 6 14 14 2 4 6 9 9 14 23 12 18 28 34 41 43 38 28 25 32 31 29 29 31 29 23 19 14 11 7 5 9 9 12 12 9 9 11
6 28 20 11 14 13 9 12 17 11 3 7 10 13 15 16 17 20 28 37 36 31 25 23 22 26 30 33 35 32 25 20 16 12 9 6 6 8 10 11 10 8 9 11
27 22 12 15 9 13 14 18 17 11 7 6 7 12 11 13 13 17 25 22 23 25 21 19 19 25 30 34 37 29 22 18 14 10 7 5 5 8 9 9 6 7 8 8
17 22 21 13 19 15 19 16 15 12 4 9 5 6 10 9 17 9 21 24 25 21 20 18 21 23 29 36 31 23 20 17 13 9 5 3 5 8 7 7 5 5 5 2
13 18 23 23 25 20 13 7 7 7 7 2 5 5 6 5 9 14 11 26 27 21 18 15 17 22 31 33 26 21 19 15 10 7 5 2 6 7 7 6 5 5 3 2
14 10 19 16 8 13 5 3 4 4 1 9 14 7 5 6 11 6 6 11 14 11 12 14 18 25 32 28 23 20 18 12 8 7 5 2 6 5 6 6 6 5 5 5
5 9 3 7 15 4 7 7 1 3 1 5 6 6 14 10 9 9 12 18 8 11 16 20 26 35 32 27 23 20 16 10 8 7 5 2 5 5 7 8 7 4 2 8
8 5 15 7 10 13 15 10 6 6 3 5 6 8 9 13 16 22 24 18 11 18 19 23 31 35 30 26 22 19 15 9 9 9 5 1 4 6 6 8 5 1 5 9
8 7 3 14 7 17 12 10 12 2 2 1 4 7 8 6 9 6 1 7 16 20 23 26 33 32 28 23 20 17 12 11 8 9 6 2 3 6 6 9 7 3 7 10
3 2 7 13 8 19 9 11 7 7 6 4 5 5 6 2 6 4 5 10 19 21 23 27 33 31 24 19 18 16 12 10 10 8 6 4 1 6 6 7 7 4 8 10
2 3 3 10 13 17 5 7 3 8 5 5 1 6 7 8 9 9 9 17 24 27 27 30 33 28 22 20 19 16 14 12 11 8 7 3 1 5 4 4 2 4 7 11
3 2 4 10 7 21 22 15 8 7 5 4 4 6 3 9 7 7 8 16 19 23 27 30 33 29 24 22 21 17 15 13 10 9 7 4 1 3 2 3 3 3 8 10
8 4 2 5 3 2 22 19 16 5 4 14 8 6 3 5 6 7 11 19 20 23 27 30 32 29 24 23 20 17 15 13 11 9 8 5 1 1 2 3 5 6 8 9
10 3 5 10 6 5 5 15 19 12 5 3 11 1 5 3 7 5 12 19 22 25 28 32 33 29 25 23 20 17 15 14 12 10 9 6 3 2 2 7 8 9 11 13
2 4 4 10 13 7 6 12 19 18 21 13 5 8 7 8 9 7 18 21 24 25 29 34 35 30 26 24 21 17 17 15 13 11 10 7 6 3 5 12 13 15 15 13
3 4 6 4 7 16 13 10 16 23 21 18 3 10 9 3 7 9 22 25 26 29 32 35 34 30 29 25 23 19 19 17 15 13 12 9 9 6 10 14 15 14 13 13
3 4 7 5 7 4 9 18 11 8 12 18 12 24 5 4 8 12 24 29 31 32 35 36 35 32 29 26 25 21 20 19 17 14 14 13 12 10 12 15 15 13 11 10
4 5 2 4 5 5 3 12 9 14 7 8 8 5 7 11 30 29 30 35 34 33 35 35 34 32 28 25 26 21 21 21 19 17 15 17 16 11 12 14 13 12 9 10
8 2 3 2 2 3 6 10 8 5 4 10 9 12 9 22 4 7 29 35 36 36 35 34 33 31 26 27 27 25 23 23 20 20 18 18 17 13 15 12 10 9 8 9
8 11 5 0 2 4 9 16 10 3 4 13 12 12 13 16 4 6 30 33 33 32 31 33 32 33 27 28 29 28 26 26 23 22 20 18 20 17 15 12 10 8 7 8
2 1 4 2 2 1 13 17 2 6 5 19 17 16 15 5 8 25 16 35 35 35 32 32 34 35 30 29 31 32 29 28 24 22 21 19 22 19 16 13 11 10 6 7
1 1 0 3 1 2 20 6 7 5 12 16 20 18 22 25 29 28 20 26 33 35 32 33 35 35 34 31 33 33 33 26 25 23 23 21 22 21 20 15 15 12 7 6
2 2 2 4 2 9 15 3 5 12 18 19 22 27 26 26 27 21 22 19 35 35 36 34 38 37 36 35 34 33 31 29 26 24 24 23 21 22 22 19 17 15 12 8
1 1 0 4 6 13 24 7 15 21 25 28 28 28 26 27 24 18 18 19 30 37 40 37 39 39 39 38 36 30 28 29 29 27 27 25 23 24 24 22 19 17 16 13
1 3 2 2 7 16 8 17 25 30 27 30 28 30 31 26 25 15 12 21 28 38 43 40 38 39 39 39 37 34 30 30 29 29 28 28 26 24 24 24 22 21 18 15
4 4 1 1 3 8 17 25 31 28 29 30 29 32 34 30 28 16 8 21 28 36 44 42 38 37 36 35 36 36 32 32 31 30 31 30 29 28 27 25 25 23 20 17
Wind_Direction
181 198 215 207 207 206 205 230 244 251 199 240 242 265 268 280 271 272 280 283 292 293 296 292 282 249 235 222 213 202 199 204 210 208 211 224 281 301 308 315 300 278 273 274
174 227 218 191 203 211 212 239 254 268 221 237 272 272 273 277 274 266 272 278 281 286 284 282 267 242 231 217 199 197 198 207 207 203 216 238 287 308 311 318 301 285 288 285
202 222 197 195 192 203 215 224 242 249 315 254 309 290 270 280 277 277 282 283 295 276 270 267 239 225 216 200 193 188 196 203 197 201 212 248 301 320 319 319 306 300 301 291
232 222 193 194 208 189 221 219 242 264 278 268 142 280 301 301 299 288 285 296 293 284 273 241 225 212 200 188 182 184 194 194 192 199 209 254 322 339 329 327 319 311 313 302
211 181 209 206 209 200 233 204 222 233 229 239 256 277 269 273 282 282 276 287 281 272 260 242 218 197 182 177 177 184 187 185 191 200 210 279 343 337 336 326 320 292 298 208
218 206 199 203 181 205 137 202 40 36 65 257 261 206 221 228 237 261 266 277 297 253 218 200 189 172 168 171 178 181 184 180 188 199 209 304 349 343 341 339 323 283 271 212
165 224 169 153 212 158 138 100 276 333 270 230 192 183 249 255 231 226 257 277 288 199 172 173 165 166 168 175 180 182 180 180 186 190 194 304 354 352 340 341 328 289 225 187
171 206 196 173 183 192 196 167 154 203 222 255 161 205 248 225 233 246 258 260 206 188 170 167 168 168 172 179 179 180 179 183 185 180 186 220 6 3 347 346 349 24 157 170
181 237 190 189 158 177 198 190 179 14 188 313 224 279 308 226 255 264 202 198 186 180 170 168 169 170 176 177 178 178 176 179 180 176 189 186 52 13 10 17 21 115 148 163
225 167 195 210 183 188 158 142 178 204 199 220 271 268 232 229 241 291 230 200 181 174 170 167 171 174 176 177 175 171 175 173 170 175 174 139 20 11 27 36 47 98 149 162
6 154 283 142 195 185 166 172 159 170 162 168 276 262 215 230 228 234 222 186 185 172 170 168 173 174 173 172 176 174 175 170 171 173 175 183 278 360 16 31 82 103 148 161
312 313 234 214 166 195 200 193 159 190 195 208 163 267 213 230 256 234 226 176 183 177 169 171 172 172 173 175 178 181 177 176 175 176 178 177 209 349 11 25 125 112 164 166
342 295 193 6 304 174 202 207 209 115 109 206 209 253 307 328 303 252 195 168 172 171 171 173 174 175 176 177 180 181 180 181 185 187 188 189 173 13 25 67 126 128 144 158
354 278 270 217 208 142 150 203 209 200 204 204 222 270 277 280 259 241 163 170 168 174 175 174 178 178 180 180 181 181 180 178 180 180 180 174 125 95 58 122 127 135 134 137
7 277 311 300 288 282 171 181 200 204 214 213 223 241 250 249 239 235 170 165 168 176 180 180 181 180 183 184 184 186 182 180 180 180 182 164 143 95 103 125 127 126 127 128
297 284 342 285 261 274 266 255 214 200 208 229 243 252 228 264 157 180 165 172 178 185 188 186 184 184 187 186 188 189 185 185 186 184 181 166 150 106 116 128 125 126 126 127
287 339 352 303 339 241 258 237 229 209 226 207 197 236 148 202 215 192 174 188 190 193 191 189 190 188 188 187 190 190 188 187 192 186 180 168 158 121 121 124 117 119 133 138
221 299 263 267 302 168 265 26 219 205 53 351 269 324 230 203 215 198 195 199 199 200 196 193 192 190 189 186 190 187 189 189 193 191 184 177 170 157 130 130 118 105 122 142
205 210 246 186 262 266 22 22 350 15 75 9 344 341 339 336 299 207 203 210 206 207 199 195 192 187 184 186 187 189 191 192 193 195 189 186 184 183 173 158 135 108 97 131
307 215 199 90 209 174 356 320 298 151 178 356 346 335 333 333 163 236 206 215 210 211 201 194 192 188 184 185 187 190 193 195 196 194 191 188 188 185 182 175 171 148 98 127
50 42 179 228 242 30 347 326 155 149 288 318 325 320 320 301 257 290 329 214 215 209 203 192 192 189 185 186 189 194 196 199 193 195 191 193 193 190 187 184 181 172 150 136
116 314 164 183 221 131 354 5 63 278 299 313 324 322 313 309 304 288 280 238 209 202 200 192 192 193 189 189 192 196 200 192 193 197 198 197 197 195 195 192 185 182 182 158
88 42 325 8 28 328 339 336 352 339 309 325 326 329 332 324 318 296 266 247 221 200 202 193 192 194 194 194 196 199 201 196 194 199 200 200 199 202 201 200 199 195 194 190
114 237 198 329 332 317 308 300 348 341 336 339 347 340 346 331 332 308 263 242 222 204 202 194 192 197 199 198 201 205 199 195 198 200 202 198 204 205 206 208 211 208 207 204
214 212 214 259 306 326 63 333 333 330 341 341 352 360 354 350 347 325 262 233 226 214 202 196 193 198 204 202 203 206 206 200 199 202 205 203 203 208 207 211 212 215 219 222
200 204 36 63 297 286 288 319 324 330 332 342 342 353 6 360 348 337 277 220 224 211 206 198 197 201 207 205 205 208 209 206 204 203 206 207 205 209 209 210 216 219 220 220
Height
1454 1461 1444 1447 1454 1458 1462 1467 1464 1458 1456 1461 1456 1454 1447 1438 1439 1434 1430 1427 1421 1419 1417 1417 1419 1424 1432 1438 1445 1450 1456 1461 1464 1465 1467 1467 1467 1467 1466 1464 1462 1460 1460 1458
1452 1433 1435 1443 1449 1454 1459 1465 1462 1455 1456 1458 1454 1450 1441 1435 1428 1427 1425 1420 1414 1413 1412 1413 1415 1419 1424 1430 1437 1446 1454 1459 1461 1463 1464 1464 1465 1464 1463 1461 1459 1458 1457 1455
1427 1411 1435 1439 1446 1453 1456 1459 1457 1462 1455 1452 1451 1450 1440 1426 1424 1420 1417 1414 1408 1407 1407 1409 1412 1415 1420 1427 1436 1443 1452 1456 1459 1461 1461 1462 1463 1462 1460 1459 1457 1455 1454 1453
1425 1426 1426 1434 1438 1443 1454 1444 1450 1456 1463 1471 1452 1473 1445 1432 1420 1414 1409 1405 1405 1405 1408 1406 1408 1413 1419 1428 1437 1444 1450 1454 1457 1458 1460 1461 1461 1460 1459 1457 1455 1454 1452 1452
1409 1415 1424 1426 1419 1432 1437 1439 1445 1450 1458 1461 1456 1469 1440 1430 1425 1412 1404 1399 1400 1402 1402 1405 1407 1412 1421 1431 1438 1443 1448 1453 1455 1457 1459 1460 1459 1459 1457 1455 1454 1453 1452 1452
1404 1404 1410 1411 1420 1426 1430 1439 1444 1450 1459 1467 1452 1463 1443 1432 1414 1407 1399 1397 1398 1397 1399 1403 1409 1417 1425 1433 1437 1443 1447 1451 1453 1455 1457 1459 1459 1457 1456 1454 1453 1451 1451 1452
1406 1407 1404 1409 1423 1423 1431 1449 1474 1480 1482 1471 1440 1454 1423 1409 1405 1400 1396 1394 1397 1399 1397 1403 1409 1416 1425 1431 1437 1442 1446 1449 1452 1454 1456 1458 1458 1457 1455 1454 1451 1450 1450 1452
1412 1419 1404 1400 1408 1417 1424 1437 1463 1471 1471 1451 1434 1445 1408 1395 1394 1392 1391 1392 1395 1400 1399 1404 1409 1416 1425 1431 1436 1441 1445 1448 1451 1454 1456 1457 1457 1456 1455 1452 1450 1449 1450 1453
1403 1405 1388 1391 1395 1406 1420 1433 1428 1445 1441 1450 1439 1416 1395 1387 1387 1385 1386 1390 1392 1398 1399 1403 1411 1418 1425 1430 1435 1441 1444 1447 1450 1453 1455 1456 1456 1456 1454 1452 1450 1450 1451 1454
1387 1402 1385 1387 1394 1396 1404 1413 1438 1442 1456 1453 1435 1426 1414 1390 1388 1385 1388 1389 1393 1397 1401 1405 1412 1419 1425 1431 1436 1441 1444 1447 1450 1452 1455 1456 1456 1456 1455 1453 1452 1452 1453 1456
1387 1391 1386 1385 1386 1394 1406 1415 1419 1423 1441 1448 1453 1429 1395 1388 1383 1385 1382 1385 1391 1392 1399 1405 1412 1419 1425 1431 1436 1440 1443 1446 1449 1452 1454 1455 1456 1456 1455 1453 1453 1454 1455 1456
1402 1399 1395 1387 1374 1378 1384 1393 1407 1415 1433 1429 1432 1425 1381 1380 1380 1381 1382 1384 1391 1395 1399 1405 1412 1418 1425 1430 1435 1440 1443 1446 1449 1452 1454 1455 1456 1456 1455 1454 1454 1454 1455 1457
1409 1405 1400 1394 1383 1379 1383 1386 1392 1407 1419 1421 1427 1418 1381 1379 1378 1379 1382 1384 1391 1397 1401 1407 1414 1419 1425 1429 1434 1439 1442 1445 1448 1451 1454 1455 1456 1456 1455 1454 1454 1455 1456 1458
1410 1408 1398 1380 1373 1376 1385 1385 1387 1401 1418 1417 1399 1396 1384 1379 1381 1380 1381 1385 1390 1397 1401 1406 1413 1418 1424 1429 1434 1438 1441 1445 1448 1451 1453 1455 1456 1456 1455 1454 1455 1456 1458 1460
1416 1415 1399 1388 1378 1374 1374 1378 1385 1392 1393 1406 1394 1397 1388 1380 1379 1378 1378 1384 1390 1395 1400 1404 1410 1416 1423 1428 1433 1437 1441 1444 1447 1450 1453 1456 1457 1457 1456 1455 1457 1458 1460 1462
1415 1412 1404 1393 1379 1374 1378 1376 1377 1376 1384 1391 1389 1388 1374 1373 1375 1380 1376 1382 1387 1392 1397 1402 1409 1414 1420 1425 1431 1436 1440 1443 1447 1450 1453 1456 1457 1458 1458 1458 1459 1461 1462 1464
1418 1413 1408 1402 1390 1378 1385 1367 1374 1376 1376 1377 1390 1366 1373 1374 1373 1373 1372 1377 1381 1387 1393 1399 1405 1411 1417 1422 1429 1434 1439 1443 1446 1450 1453 1456 1458 1460 1461 1462 1463 1463 1465 1466
1413 1414 1409 1409 1392 1394 1366 1365 1360 1368 1382 1381 1373 1370 1367 1361 1359 1360 1364 1368 1376 1383 1391 1396 1402 1409 1415 1421 1427 1433 1438 1442 1445 1449 1452 1456 1458 1461 1464 1466 1467 1467 1467 1468
1407 1409 1405 1410 1401 1370 1374 1383 1390 1386 1393 1392 1386 1378 1373 1367 1364 1359 1360 1363 1368 1374 1383 1390 1398 1406 1413 1419 1425 1431 1436 1440 1444 1447 1451 1455 1458 1461 1464 1466 1468 1470 1470 1471
1405 1395 1405 1404 1402 1377 1400 1387 1384 1385 1389 1391 1389 1384 1379 1371 1373 1359 1355 1361 1368 1375 1382 1388 1396 1404 1411 1417 1422 1428 1433 1438 1441 1445 1449 1454 1458 1461 1464 1467 1469 1471 1472 1473
1403 1403 1405 1405 1406 1387 1392 1380 1372 1383 1399 1390 1387 1383 1379 1374 1361 1357 1359 1357 1361 1368 1376 1386 1393 1400 1407 1414 1420 1425 1430 1434 1440 1444 1448 1452 1456 1460 1464 1467 1469 1472 1474 1475
1402 1403 1394 1393 1391 1387 1390 1383 1391 1402 1395 1390 1385 1380 1374 1367 1360 1356 1357 1360 1357 1365 1374 1383 1389 1397 1404 1411 1417 1422 1426 1432 1438 1442 1447 1450 1455 1459 1463 1466 1469 1472 1474 1476
1404 1409 1406 1404 1400 1398 1397 1397 1398 1397 1393 1388 1381 1375 1370 1363 1356 1351 1351 1355 1358 1361 1368 1377 1384 1393 1400 1406 1412 1417 1423 1430 1435 1440 1445 1449 1453 1457 1462 1465 1469 1471 1474 1476
1407 1409 1409 1405 1401 1398 1395 1395 1396 1394 1390 1384 1380 1374 1368 1361 1354 1348 1346 1351 1354 1359 1364 1372 1380 1387 1394 1401 1407 1413 1420 1427 1433 1438 1442 1447 1451 1455 1460 1464 1467 1470 1473 1475
1410 1413 1409 1404 1401 1395 1391 1394 1393 1390 1387 1383 1378 1373 1366 1359 1352 1347 1343 1346 1349 1356 1359 1367 1374 1381 1388 1396 1404 1410 1417 1423 1429 1435 1440 1445 1449 1453 1457 1461 1465 1468 1472 1474
1415 1412 1406 1405 1405 1406 1398 1395 1393 1390 1386 1381 1377 1369 1363 1356 1350 1346 1342 1341 1346 1351 1357 1363 1370 1377 1384 1392 1399 1406 1412 1418 1425 1430 1436 1441 1445 1450 1454 1458 1462 1465 1469 1473